• In India
  • List of Countries
  • For 7 days
  • Water Temperature
  • Satellite Maps
  • Weather Map
  • Weather Widgets
  • user-avatar
    Login

    Hourly Weather Damianowo

    Today, 20 September, Thursday

    Time Temperature Precipitation Wind Pressure Humidity
    00:00 +20°C° 0 mm 2 mps 747 mmHg 71%
    01:00 +19°C° 0 mm 2 mps 747 mmHg 68%
    02:00 +19°C° 0 mm 2 mps 747 mmHg 69%
    03:00 +19°C° 0 mm 2 mps 747 mmHg 69%
    04:00 +19°C° 0 mm 2 mps 747 mmHg 70%
    05:00 +19°C° 0 mm 2 mps 747 mmHg 70%
    06:00 +20°C° 0 mm 2 mps 747 mmHg 69%
    07:00 +20°C° 0 mm 2 mps 747 mmHg 69%
    08:00 +23°C° 0 mm 1 mps 747 mmHg 63%
    09:00 +25°C° 0 mm 1 mps 747 mmHg 56%
    10:00 +27°C° 0 mm 1 mps 748 mmHg 49%
    11:00 +28°C° 0 mm 2 mps 747 mmHg 46%
    12:00 +29°C° 0 mm 2 mps 747 mmHg 43%
    13:00 +30°C° 0 mm 2 mps 747 mmHg 40%
    14:00 +30°C° 0 mm 2 mps 747 mmHg 41%
    15:00 +30°C° 0 mm 2 mps 746 mmHg 42%
    16:00 +29°C° 0 mm 2 mps 746 mmHg 43%
    17:00 +28°C° 0 mm 2 mps 746 mmHg 47%
    18:00 +26°C° 0 mm 2 mps 746 mmHg 52%
    19:00 +24°C° 0 mm 2 mps 746 mmHg 57%
    20:00 +23°C° 0 mm 2 mps 746 mmHg 59%
    21:00 +21°C° 0 mm 2 mps 746 mmHg 60%
    22:00 +21°C° 0 mm 2 mps 745 mmHg 62%
    23:00 +20°C° 0 mm 2 mps 745 mmHg 64%

    Tomorrow, 21 September, Friday

    Time Temperature Precipitation Wind Pressure Humidity
    00:00 +20°C° 0 mm 2 mps 745 mmHg 66%
    01:00 +20°C° 0 mm 3 mps 745 mmHg 68%
    02:00 +19°C° 0 mm 3 mps 744 mmHg 70%
    03:00 +19°C° 0 mm 3 mps 744 mmHg 72%
    04:00 +19°C° 0 mm 3 mps 744 mmHg 74%
    05:00 +19°C° 0 mm 3 mps 743 mmHg 73%
    06:00 +19°C° 0 mm 3 mps 743 mmHg 72%
    07:00 +20°C° 0 mm 3 mps 743 mmHg 71%
    08:00 +22°C° 0 mm 4 mps 743 mmHg 64%
    09:00 +25°C° 0 mm 5 mps 743 mmHg 56%
    10:00 +27°C° 0 mm 6 mps 742 mmHg 49%
    11:00 +28°C° 0 mm 6 mps 742 mmHg 46%
    12:00 +28°C° 0 mm 6 mps 741 mmHg 43%
    13:00 +29°C° 0 mm 7 mps 740 mmHg 40%
    14:00 +29°C° 0 mm 6 mps 740 mmHg 41%
    15:00 +29°C° 0 mm 6 mps 739 mmHg 42%
    16:00 +29°C° 0 mm 6 mps 739 mmHg 43%
    17:00 +27°C° 0 mm 6 mps 739 mmHg 47%
    18:00 +26°C° 0 mm 5 mps 739 mmHg 51%
    19:00 +25°C° 0 mm 5 mps 740 mmHg 55%
    20:00 +21°C° 0.1 mm 6 mps 741 mmHg 61%
    21:00 +19°C° 0.1 mm 6 mps 742 mmHg 67%
    22:00 +16°C° 0.1 mm 7 mps 742 mmHg 73%
    23:00 +15°C° 0.1 mm 6 mps 743 mmHg 71%

    Day after tomorrow, 22 September, Saturday

    Time Temperature Precipitation Wind Pressure Humidity
    00:00 +14°C° 0.1 mm 5 mps 744 mmHg 70%
    01:00 +14°C° 0.1 mm 4 mps 745 mmHg 68%
    02:00 +13°C° 0 mm 4 mps 745 mmHg 68%
    03:00 +13°C° 0 mm 3 mps 746 mmHg 67%
    04:00 +12°C° 0 mm 3 mps 746 mmHg 66%
    05:00 +12°C° 0 mm 3 mps 747 mmHg 66%
    06:00 +12°C° 0 mm 4 mps 747 mmHg 66%
    07:00 +12°C° 0 mm 4 mps 747 mmHg 65%
    08:00 +13°C° 0 mm 4 mps 747 mmHg 59%
    09:00 +14°C° 0 mm 5 mps 747 mmHg 54%
    10:00 +15°C° 0 mm 5 mps 747 mmHg 48%
    11:00 +16°C° 0 mm 5 mps 747 mmHg 45%
    12:00 +17°C° 0 mm 6 mps 747 mmHg 43%
    13:00 +17°C° 0 mm 6 mps 747 mmHg 40%
    14:00 +17°C° 0 mm 6 mps 747 mmHg 40%
    15:00 +17°C° 0 mm 5 mps 747 mmHg 41%
    16:00 +17°C° 0 mm 5 mps 747 mmHg 41%
    17:00 +17°C° 0 mm 4 mps 747 mmHg 45%
    18:00 +16°C° 0 mm 3 mps 747 mmHg 49%
    19:00 +13°C° 0 mm 3 mps 748 mmHg 52%
    20:00 +13°C° 0 mm 3 mps 748 mmHg 54%
    21:00 +12°C° 0 mm 3 mps 748 mmHg 56%
    22:00 +12°C° 0 mm 3 mps 748 mmHg 58%
    23:00 +11°C° 0 mm 3 mps 748 mmHg 60%

    23 September, Sunday

    Time Temperature Precipitation Wind Pressure Humidity
    00:00 +12°C° 0 mm 2 mps 748 mmHg 61%
    01:00 +10°C° 0 mm 2 mps 748 mmHg 63%
    02:00 +10°C° 0 mm 2 mps 748 mmHg 63%
    03:00 +10°C° 0 mm 2 mps 747 mmHg 63%
    04:00 +12°C° 0 mm 2 mps 747 mmHg 63%
    05:00 +12°C° 0.1 mm 2 mps 747 mmHg 65%
    06:00 +11°C° 0.1 mm 3 mps 747 mmHg 66%
    07:00 +11°C° 0.1 mm 3 mps 746 mmHg 68%
    08:00 +12°C° 0.1 mm 3 mps 746 mmHg 66%
    09:00 +13°C° 0.1 mm 4 mps 745 mmHg 64%
    10:00 +14°C° 0.1 mm 5 mps 745 mmHg 62%
    11:00 +14°C° 0.2 mm 5 mps 744 mmHg 66%
    12:00 +14°C° 0.2 mm 4 mps 743 mmHg 70%
    13:00 +14°C° 0.2 mm 4 mps 742 mmHg 74%
    14:00 +14°C° 0.1 mm 5 mps 741 mmHg 75%
    15:00 +15°C° 0.1 mm 6 mps 740 mmHg 75%
    16:00 +16°C° 0.1 mm 7 mps 738 mmHg 76%
    17:00 +16°C° 0.7 mm 7 mps 737 mmHg 78%
    18:00 +16°C° 0.7 mm 7 mps 736 mmHg 80%
    19:00 +17°C° 0.7 mm 8 mps 735 mmHg 83%
    20:00 +17°C° 0.7 mm 8 mps 734 mmHg 81%
    21:00 +18°C° 0.7 mm 9 mps 733 mmHg 80%
    22:00 +19°C° 0.7 mm 9 mps 732 mmHg 79%
    23:00 +18°C° 1.1 mm 9 mps 731 mmHg 78%

    24 September, Monday

    Time Temperature Precipitation Wind Pressure Humidity
    00:00 +17°C° 1.1 mm 9 mps 731 mmHg 77%
    01:00 +16°C° 1.1 mm 8 mps 730 mmHg 76%
    02:00 +13°C° 0.4 mm 10 mps 732 mmHg 77%
    03:00 +11°C° 0.4 mm 11 mps 734 mmHg 79%
    04:00 +8°C° 0.4 mm 12 mps 736 mmHg 80%
    05:00 +8°C° 0.1 mm 11 mps 738 mmHg 78%
    06:00 +7°C° 0.1 mm 11 mps 741 mmHg 77%
    07:00 +7°C° 0.1 mm 10 mps 743 mmHg 75%
    08:00 +7°C° 0 mm 10 mps 744 mmHg 71%
    09:00 +8°C° 0 mm 10 mps 744 mmHg 67%
    10:00 +9°C° 0 mm 11 mps 745 mmHg 63%
    11:00 +11°C° 0 mm 11 mps 746 mmHg 57%
    12:00 +12°C° 0 mm 10 mps 747 mmHg 51%
    13:00 +13°C° 0 mm 10 mps 747 mmHg 46%
    14:00 +12°C° 0.1 mm 10 mps 748 mmHg 47%
    15:00 +12°C° 0.1 mm 9 mps 749 mmHg 49%
    16:00 +12°C° 0.1 mm 8 mps 749 mmHg 51%
    17:00 +11°C° 0.1 mm 7 mps 750 mmHg 57%
    18:00 +10°C° 0.1 mm 6 mps 750 mmHg 64%
    19:00 +9°C° 0.1 mm 5 mps 751 mmHg 70%
    20:00 +8°C° 0 mm 4 mps 752 mmHg 72%
    21:00 +8°C° 0 mm 4 mps 752 mmHg 73%
    22:00 +7°C° 0 mm 4 mps 753 mmHg 75%
    23:00 +7°C° 0 mm 4 mps 753 mmHg 76%

    25 September, Tuesday

    Time Temperature Precipitation Wind Pressure Humidity
    00:00 +6°C° 0 mm 4 mps 753 mmHg 77%
    01:00 +6°C° 0 mm 5 mps 753 mmHg 78%
    02:00 +6°C° 0 mm 5 mps 754 mmHg 79%
    03:00 +5°C° 0 mm 5 mps 754 mmHg 80%
    04:00 +5°C° 0 mm 5 mps 754 mmHg 82%
    05:00 +5°C° 0 mm 5 mps 754 mmHg 81%
    06:00 +5°C° 0 mm 5 mps 754 mmHg 81%
    07:00 +6°C° 0 mm 5 mps 754 mmHg 80%
    08:00 +7°C° 0 mm 6 mps 754 mmHg 73%
    09:00 +9°C° 0 mm 6 mps 754 mmHg 66%
    10:00 +10°C° 0 mm 7 mps 754 mmHg 60%
    11:00 +11°C° 0.1 mm 7 mps 754 mmHg 58%
    12:00 +12°C° 0.1 mm 7 mps 753 mmHg 56%
    13:00 +12°C° 0.1 mm 7 mps 753 mmHg 54%
    14:00 +11°C° 0.9 mm 7 mps 752 mmHg 63%
    15:00 +10°C° 0.9 mm 7 mps 752 mmHg 72%
    16:00 +9°C° 0.9 mm 6 mps 752 mmHg 82%
    17:00 +8°C° 0.1 mm 6 mps 752 mmHg 83%
    18:00 +8°C° 0.1 mm 5 mps 753 mmHg 84%
    19:00 +7°C° 0.1 mm 4 mps 753 mmHg 85%
    20:00 +7°C° 0 mm 4 mps 754 mmHg 86%
    21:00 +8°C° 0 mm 3 mps 754 mmHg 87%
    22:00 +8°C° 0 mm 3 mps 754 mmHg 88%
    23:00 +7°C° 0 mm 3 mps 755 mmHg 89%
    Show more